Weather in Tatarka

Russia / Stavropol Krai     44°57′34″N   41°57′28″E
temp.,
°C
wind,
m/s
gust,
m/s
humid.,
%
clouds,
%
prec.,
mm/h
press.,
hPa
HPBL,
m
23 october, sat
sat2300:00+11sw11480 0.0 102010
03:00+10s22510 0.0 102110
06:00+9ssw22590 0.0 102012
09:00+15s22450 0.0 1020114
12:00+19ssw22280 0.0 1019788
15:00+20sw22255 0.0 10181060
18:00+14wnw114082 0.0 101911
21:00+12w224991 0.0 102014
24 october, sun
sun2400:00+11wsw346571 0.0 102074
03:00+10wsw2477100 0.0 102084
06:00+9wsw2280100 0.0 102032
09:00+12wsw2366100 0.0 1020208
12:00+15w226187 0.0 1018750
15:00+16nw1157100 0.0 10161037
18:00+13ne2474100 0.0 1016122
21:00+11ne3587100 0.1 1016262
25 october, mon
mon2500:00+8nne5693100 0.0 1018421
03:00+5n6794100 0.2 1021583
06:00+4nnw4593100 2.3 1023537
09:00+3nw3595100 3.2 1026605
12:00+4nw3585100 0.4 1027658
15:00+6nw3570100 0.5 1027968
18:00+6w2372100 0.0 1029179
21:00+5nnw1371100 0.0 1030175
26 october, tue
tue2600:00+4ne127472 0.0 103163
03:00+2ene227938 0.0 103153
06:00+2e238214 0.0 103255
09:00+4e45665 0.0 1032423
12:00+8e555511 0.0 10301018
15:00+8e45526 0.0 10291120
18:00+5e37675 0.0 1030171
21:00+4e49745 0.0 1030245
27 october, wed
wed2700:00+3ese511795 0.0 1029317
03:00+2ese5107523 0.0 1029280
06:00+1ese5127839 0.0 1028307
09:00+5ese713765 0.0 1028515
12:00+9ese810600 0.0 1026731
15:00+10ese78570 0.0 1024826
18:00+6se510750 0.0 1025417
21:00+4se49850 0.0 1024260